Location: Sternwarte Stuttgart
(48.7670°N, 9.1830°E)
Time: 01:04:30
(UTC+02:00)

Meteor 1-4 Rocket - Pass Details

Date: 24 January 2019
Orbit: 451 x 504 km, 81.2° (Epoch: 19 April)

Event Time Altitude Azimuth Distance (km) Brightness Sun altitude
Exits shadow 07:20:29 - 335° (NNW) 2,489 5.7 -7.2°
Reaches altitude 10° 07:22:35 10° 323° (NW) 1,726 4.8 -6.9°
Maximum altitude 07:25:37 23° 269° (W) 1,097 3.8 -6.5°
Drops below altitude 10° 07:28:38 10° 215° (SW) 1,701 5.2 -6.0°
Sets 07:31:01 0° 201° (SSW) 2,570 6.3 -5.6°
